Regional Weather Roundup
Issued by NWS Charleston, WV

Home | Current Version | Previous Version | Graphics & Text | Print | Product List | Glossary On
Versions: 1 2 3 4 5 6 7 8 9 10 11 12 13 14 15 16 17 18 19 20 21 22 23 24 25 26 27 28 29 30 31 32 33 34 35 36 37 38 39 40 41 42 43 44 45 46 47 48 49 50
000
ASUS41 KRLX 180610
RWRRLX
West Virginia Regional Weather Roundup
National Weather Service Charleston WV
100 AM EST THU DEC 18 2014

Note: "fair" indicates few or no clouds below 12,000 feet with no
significant weather and/or obstructions to visibility.

WVZ003-180700-
Northern Panhandle of West Virginia

CITY           SKY/WX    TMP DP  RH WIND       PRES   REMARKS
WHEELING       CLOUDY    27  18  69 W14G23    30.16S
$$

WVZ009-180700-
Northwest West Virginia

CITY           SKY/WX    TMP DP  RH WIND       PRES   REMARKS
PARKERSBURG    CLOUDY    29  19  66 NW9       30.24S
$$

WVZ006-180700-
Western West Virginia

CITY           SKY/WX    TMP DP  RH WIND       PRES   REMARKS
HUNTINGTON     CLOUDY    31  23  72 NW7       30.23S
$$

WVZ015-180700-
West Central West Virginia

CITY           SKY/WX    TMP DP  RH WIND       PRES   REMARKS
CHARLESTON     CLOUDY    33  24  69 NW8       30.21S
$$

WVZ022-031-180700-
North Central West Virginia

CITY           SKY/WX    TMP DP  RH WIND       PRES   REMARKS
CLARKSBURG     CLOUDY    29  20  69 W9G18     30.17S
MORGANTOWN     CLOUDY    30  18  60 W10       30.16R
$$

WVZ025-035-042-045-180700-
Southern West Virginia

CITY           SKY/WX    TMP DP  RH WIND       PRES   REMARKS
BECKLEY        CLOUDY    29  23  78 W12       30.11S
LOGAN          CLOUDY    30  27  86 CALM      30.18S
BLUEFIELD      CLOUDY    29  22  75 NW14G24   30.10S
LEWISBURG      MOCLDY    31  24  72 W6        30.09F
$$

WVZ047-180700-
Northern Mountains of West Virginia

CITY           SKY/WX    TMP DP  RH WIND       PRES   REMARKS
ELKINS         CLOUDY    28  22  78 NW9       30.12S
$$

WVZ052-180700-
Eastern Panhandle of West Virginia

CITY           SKY/WX    TMP DP  RH WIND       PRES   REMARKS
MARTINSBURG    CLOUDY    37  17  44 NW18G26   30.08S
PETERSBURG     MOCLDY    34  18  53 W18G28    30.09F
$$



USA.gov is the U.S. government's official web portal to all federal, state and local government web resources and services.